Preview of NWS' New Version of Forecast
This preview is not operational and should not be used for support decisions.

Regional Weather Roundup (RWR)

Issued by National Weather Service (NWS)

                            
000
ASUS45 KABQ 190901
RWRNM 
NEW MEXICO REGIONAL WEATHER ROUNDUP
NATIONAL WEATHER SERVICE ALBUQUERQUE NM
300 AM MDT MON AUG 19 2019

NOTE: "FAIR" MEANS FEW OR NO CLOUDS BELOW 12,000 FEET AGL WITH NO
       SIGNIFICANT WEATHER OR OBSTRUCTIONS TO VISION.

      THIS PRODUCT IS RELEASED AS TWO VERSIONS.  ONE VERSION NEAR
      THE TOP OF THE HOUR CONTAINING PRELIMINARY DATA FROM ALBUQUERQUE
      AND OTHER STATIONS.  A FINAL VERSION WITH ADDITIONAL DATA IS 
      ISSUED ABOUT 10 MINUTES AFTER THE HOUR.
 
NMZ501-503-504-510>518-191000-
NORTHWEST PLATEAU/NORTHCENTRAL MOUNTAINS
  
CITY           SKY/WX    TMP DP  RH WIND       PRES   REMARKS
FARMINGTON     FAIR      63  26  24 NE8       30.12R                  
LOS ALAMOS       N/A     72  21  14 CALM      30.27S                  
SANTA FE       FAIR      61  32  33 E5        30.19S                  
TAOS             N/A     55  27  34 N5        30.27F                  
ANGEL FIRE     FAIR      42  34  73 CALM      30.41S                  

$$
NMZ402-403-502-505>509-191000-
WESTCENTRAL MOUNTAINS/SOUTHWEST MOUNTAINS
  
CITY           SKY/WX    TMP DP  RH WIND       PRES   REMARKS
GALLUP         FAIR      54  22  28 E3        30.23F                  
GRANTS         FAIR      55  30  38 NW3       30.26R                  
SILVER CITY    FAIR      70  36  29 NW13      30.12F                  

$$
NMZ407-409-411-412-191000-
SOUTHERN DESERTS
  
CITY           SKY/WX    TMP DP  RH WIND       PRES   REMARKS
DEMING         FAIR      71  37  28 SW5       30.04S                  
LAS CRUCES     FAIR      74  34  22 SE6       30.05R                  
HOLLOMAN AFB   FAIR      79  38  22 SE10      30.02F                  
ALAMOGORDO     FAIR      75  36  23 S7        30.02S                  
T OR C         FAIR      78  34  20 NW13      30.05S                  

$$
NMZ519>523-191000-
CENTRAL VALLEYS/CENTRAL HIGHLANDS
  
CITY           SKY/WX    TMP DP  RH WIND       PRES   REMARKS
ALBUQUERQUE    FAIR      73  37  27 N8        30.11S                  
CLINES CORNERS FAIR      67  29  24 N5        30.25F                  
BELEN          FAIR      69  30  23 SW5       30.11S                  
SOCORRO        FAIR      67  32  26 W5        30.07F                  

$$
NMZ524>526-539-540-191000-
SOUTHCENTRAL MOUNTAINS
  
CITY           SKY/WX    TMP DP  RH WIND       PRES   REMARKS
RUIDOSO        FAIR      66  36  32 W6        30.25S                  

$$
NMZ527>531-191000-
NORTHEAST HIGHLANDS/NORTHEAST PLAINS
  
CITY           SKY/WX    TMP DP  RH WIND       PRES   REMARKS
LAS VEGAS      FAIR      59  31  34 N3        30.24F                  
RATON          FAIR      58  46  64 NE8       30.21F                  
CLAYTON        FAIR      67  58  72 SW8       30.09R                  

$$
NMZ532>537-191000-
EASTCENTRAL PLAINS
  
CITY           SKY/WX    TMP DP  RH WIND       PRES   REMARKS
TUCUMCARI      FAIR      74  53  48 S3        29.98F                  
CANNON AFB     FAIR      73  55  52 E6        30.04S                  
CLOVIS AIRPORT FAIR      73  57  57 SE7       30.05R                  

$$
NMZ028-029-538-191000-
SOUTHEAST PLAINS
  
CITY           SKY/WX    TMP DP  RH WIND       PRES   REMARKS
ROSWELL        FAIR      78  46  32 S8        29.95S                  
ARTESIA        FAIR      82  57  42 S6        29.98R                  
CARLSBAD       FAIR      83  56  39 S6        29.93R                  
HOBBS          FAIR      84  59  42 S20G25    29.99S                  


$$